Wind_Speed
6 8 12 13 14 16 17 17 17 17 17 17 17 17 17 18 19 19 19 19 19 19 20 20 21 21 21 22 21 21 21 21 21 22 22 22 22 22 23 23 23 24 25
6 8 10 12 14 16 17 17 18 17 18 18 17 18 19 19 20 20 20 21 21 21 21 22 22 23 23 24 24 25 24 24 25 25 25 25 25 26 26 26 27 28 29
6 8 10 11 14 16 16 17 18 19 19 19 19 19 19 20 21 21 22 22 22 23 23 23 24 24 24 25 26 27 27 27 28 28 28 29 29 29 29 30 31 32 33
6 7 9 11 13 16 17 18 18 19 20 21 20 19 20 20 21 22 23 23 23 23 23 23 24 25 26 26 27 28 28 29 30 30 31 32 32 33 34 35 35 35 36
7 7 8 10 12 13 15 17 18 18 19 20 20 20 20 21 22 23 23 23 23 23 23 24 24 24 25 26 27 28 29 30 30 31 32 33 34 35 36 36 37 38 38
9 9 9 11 12 13 14 17 19 19 19 20 20 20 20 21 21 21 22 22 22 23 24 25 25 27 28 28 29 30 31 32 33 34 34 35 36 37 38 39 40 40 40
10 10 10 10 12 13 13 15 17 18 18 19 20 20 20 21 21 21 22 23 24 25 26 27 27 28 29 31 32 32 33 34 35 36 37 38 39 40 41 42 43 44 44
11 11 12 12 12 13 14 15 17 19 19 19 20 20 21 21 21 22 23 24 26 26 27 29 29 30 31 32 33 34 35 36 37 38 39 41 42 43 44 45 46 47 48
13 13 13 14 14 15 15 16 16 16 18 19 19 21 22 22 22 23 24 25 26 28 29 30 30 32 33 34 34 36 37 39 40 41 43 45 46 47 48 49 50 51 52
16 16 16 16 16 16 17 17 17 17 17 19 20 21 22 23 24 25 26 27 28 29 30 31 32 33 35 36 37 39 40 42 43 45 47 48 49 51 52 53 54 55 56
18 18 18 18 18 18 19 19 19 20 20 21 23 24 25 25 26 26 27 28 29 31 32 33 35 36 38 39 40 42 43 45 46 48 49 51 53 55 56 57 58 59 60
20 20 20 20 20 20 21 21 21 22 24 24 26 26 26 26 28 29 29 30 31 33 34 36 37 39 41 42 44 45 47 49 50 52 54 56 57 58 59 61 62 62 63
21 20 20 21 22 21 22 22 23 24 25 25 26 26 28 29 29 30 31 33 34 36 37 39 41 43 44 46 48 49 51 52 54 55 57 58 59 60 61 61 62 62 63
21 21 22 22 23 22 23 23 23 24 25 26 27 28 29 30 31 32 34 35 37 38 40 42 44 46 48 49 50 52 53 54 56 57 58 59 60 61 61 61 61 61 61
23 23 23 24 24 24 24 24 25 26 26 27 28 29 31 31 32 34 36 38 39 41 43 45 46 48 49 51 52 53 54 54 55 55 56 57 57 57 57 57 57 57 56
25 24 24 24 24 25 25 25 26 26 27 29 30 31 32 33 34 36 38 40 42 43 45 46 47 48 50 51 52 52 52 52 53 53 52 52 52 52 52 52 52 51 51
24 24 24 24 24 24 24 25 27 27 29 30 31 31 32 34 36 38 40 42 44 45 46 47 48 48 49 49 50 50 50 51 51 50 50 49 49 48 47 46 46 45 45
23 24 23 23 23 24 25 26 27 28 29 31 32 33 34 36 38 40 41 43 44 45 46 46 46 47 48 48 48 48 49 48 48 47 47 46 45 44 43 42 42 42 41
22 22 22 23 24 25 25 26 27 29 30 31 32 33 36 38 40 41 43 43 44 45 45 45 46 46 46 46 46 46 46 45 44 44 43 43 42 41 40 39 38 38 37
21 22 23 24 25 25 26 26 27 29 30 32 34 36 38 40 41 42 43 43 43 44 44 44 44 44 44 43 43 43 43 42 42 41 41 39 38 37 36 35 34 34 33
21 22 23 24 25 25 26 27 28 30 32 34 36 38 39 40 41 42 42 43 43 43 43 42 42 41 41 41 41 41 40 40 39 38 37 36 35 34 33 32 31 30 29
20 22 23 23 24 25 26 28 30 32 34 36 37 38 40 41 41 42 41 41 41 40 40 39 38 39 39 39 39 38 38 37 36 35 34 34 33 32 31 30 29 28 27
20 21 22 24 25 27 29 31 32 34 36 37 38 39 39 39 40 40 39 38 37 37 37 37 37 37 37 37 36 36 35 34 34 33 32 31 30 29 28 27 27 26 25
20 22 24 25 27 29 31 33 34 35 36 37 37 38 37 37 37 36 36 35 34 34 35 35 35 35 35 35 35 34 33 32 32 31 30 29 28 28 27 26 25 24 23
22 24 25 27 29 31 32 33 33 34 35 35 35 35 34 34 33 33 33 33 32 32 33 33 33 33 33 33 33 32 32 31 30 29 28 28 27 27 25 24 24 23 23
24 26 27 28 30 31 31 32 32 32 32 32 32 32 32 31 31 31 31 30 30 31 31 31 31 31 31 31 31 31 30 29 29 28 27 26 26 25 24 23 23 22 22
Wind_Direction
244 228 223 222 221 219 217 220 222 225 229 232 237 238 240 241 245 247 250 255 258 261 264 265 265 267 269 269 270 270 271 272 274 275 275 274 275 276 276 277 277 277 276
244 234 229 226 223 222 221 222 223 226 230 235 239 242 246 247 249 251 253 256 260 263 266 267 268 270 271 272 273 273 273 274 274 274 274 273 275 275 276 276 277 277 277
253 242 234 231 226 223 223 224 227 231 234 238 243 249 251 251 252 253 255 258 262 264 266 267 267 269 272 273 274 275 275 275 275 274 275 275 275 275 275 275 275 276 276
262 250 246 240 235 229 231 233 234 238 242 243 248 252 252 253 256 257 258 260 262 264 266 268 270 270 272 274 276 277 277 277 278 277 276 276 276 276 276 276 276 275 276
271 266 260 254 246 240 240 240 240 244 247 247 250 254 255 256 258 260 261 262 265 266 268 270 271 274 276 276 276 278 278 278 279 279 278 278 277 277 277 277 277 277 277
275 265 263 261 254 250 249 249 248 249 249 249 250 255 258 259 261 263 262 264 266 268 270 272 274 276 278 278 279 278 279 278 279 279 279 279 279 278 278 278 278 277 277
274 268 263 262 260 258 256 254 255 255 255 251 253 257 261 262 262 263 265 266 267 269 271 274 276 279 280 279 279 279 279 279 280 279 279 279 279 279 279 279 279 278 277
277 277 272 265 265 267 269 267 266 264 260 260 260 261 262 264 265 265 266 267 269 271 274 276 277 278 280 280 280 281 281 281 281 281 281 280 280 280 280 279 278 278 277
277 277 273 269 271 271 272 268 268 270 266 264 263 263 264 267 269 270 271 272 273 274 276 277 277 278 280 281 282 282 282 282 282 281 281 281 281 281 280 279 279 278 278
274 274 270 269 269 272 274 273 273 272 268 266 268 269 269 270 271 272 274 275 276 277 278 279 280 281 282 283 283 283 283 282 282 282 282 282 282 281 281 280 280 278 278
272 274 272 270 273 276 278 281 280 277 274 272 272 271 271 273 275 276 277 278 279 279 280 281 282 284 284 284 284 283 283 283 283 283 283 282 282 281 281 281 280 279 279
270 273 275 276 278 277 280 282 282 280 278 277 276 275 275 277 279 279 280 281 282 283 283 284 284 285 286 285 285 284 284 284 284 284 283 283 282 282 282 281 281 281 280
271 274 277 279 281 281 281 282 282 281 280 280 278 279 280 282 283 282 283 285 285 285 286 286 286 287 287 286 286 286 286 286 286 286 285 284 284 283 282 282 281 281 280
272 274 275 279 281 280 282 283 281 280 279 279 279 282 284 285 284 284 285 287 288 288 288 288 288 288 288 288 288 288 288 288 288 287 286 286 285 284 284 283 282 281 281
272 273 276 279 280 279 281 281 281 280 281 284 284 285 286 286 285 286 288 289 290 291 291 291 291 290 291 292 292 292 291 291 291 290 289 288 287 287 286 285 284 283 282
271 272 276 279 280 281 281 281 282 281 282 283 284 285 287 288 289 290 291 291 292 293 293 293 293 293 294 294 294 294 294 294 294 293 293 293 292 291 290 288 287 286 285
273 275 277 278 279 279 280 281 282 282 283 284 286 288 289 290 291 292 293 293 294 294 294 295 295 296 296 296 296 296 296 296 296 296 295 295 295 294 292 291 290 289 288
273 275 277 276 278 282 283 283 284 285 286 288 289 291 292 293 293 293 294 294 295 296 296 297 297 298 299 299 299 298 298 298 298 297 297 297 297 296 295 294 293 293 292
272 275 277 278 281 284 284 285 286 287 289 290 292 293 294 294 295 296 296 297 297 298 298 299 299 300 300 300 300 300 300 300 300 300 300 299 298 297 296 296 295 295 294
272 274 276 279 282 284 285 286 287 289 292 293 295 296 297 297 298 298 299 299 299 300 300 300 301 301 302 302 302 302 303 303 303 302 302 301 300 300 299 298 297 297 296
272 275 279 283 284 286 288 290 291 293 295 296 297 298 298 299 300 300 301 301 302 302 302 302 303 304 304 305 305 305 305 305 305 304 303 303 302 302 301 300 300 298 298
276 280 283 284 287 290 292 294 295 296 298 298 299 299 300 301 302 302 303 304 304 305 305 305 305 306 307 307 308 308 308 307 307 307 307 306 304 303 302 301 301 300 299
279 283 287 290 292 295 296 296 297 298 299 300 301 302 303 304 304 305 306 307 307 307 308 308 309 309 309 310 310 310 309 309 309 308 308 308 307 305 304 303 303 302 301
289 292 293 295 296 296 297 298 299 300 301 302 303 304 305 306 307 308 309 309 309 309 309 310 311 312 312 313 313 313 312 311 310 309 309 308 307 307 305 304 303 303 302
294 296 297 298 298 298 298 299 300 301 303 304 305 306 307 308 309 310 310 310 311 312 312 313 313 314 315 315 316 316 315 314 313 312 311 310 309 308 305 304 303 303 302
297 298 298 298 299 299 300 301 303 304 305 306 307 308 309 309 310 311 312 313 314 314 315 316 316 316 317 318 319 319 318 317 316 315 314 313 312 310 307 306 305 303 302
Height
5836 5836 5837 5838 5839 5840 5842 5844 5846 5848 5849 5850 5852 5853 5854 5855 5856 5857 5858 5858 5858 5859 5859 5859 5859 5858 5858 5858 5858 5858 5858 5857 5857 5856 5856 5855 5854 5853 5852 5851 5850 5849 5848
5834 5834 5834 5835 5836 5838 5839 5841 5843 5844 5845 5847 5848 5849 5850 5851 5852 5852 5853 5853 5853 5854 5853 5853 5853 5853 5852 5852 5852 5851 5851 5850 5850 5849 5848 5848 5847 5846 5845 5844 5842 5841 5840
5832 5832 5832 5833 5833 5835 5836 5838 5839 5841 5841 5843 5844 5845 5845 5846 5847 5847 5848 5848 5848 5848 5848 5847 5847 5847 5846 5845 5845 5844 5844 5843 5842 5841 5840 5839 5838 5838 5837 5836 5834 5833 5831
5829 5829 5829 5830 5830 5831 5833 5834 5835 5836 5837 5838 5839 5840 5840 5840 5841 5842 5842 5842 5842 5842 5841 5841 5841 5840 5840 5839 5838 5837 5836 5835 5834 5833 5832 5830 5829 5828 5827 5826 5824 5823 5821
5827 5826 5827 5827 5827 5828 5829 5830 5831 5831 5832 5833 5834 5835 5835 5835 5835 5836 5836 5836 5836 5836 5835 5835 5834 5833 5833 5832 5830 5829 5828 5826 5825 5824 5822 5821 5819 5817 5816 5815 5814 5812 5811
5824 5824 5824 5824 5824 5825 5825 5825 5826 5827 5827 5828 5829 5829 5829 5829 5830 5830 5830 5830 5830 5829 5829 5828 5827 5826 5825 5824 5822 5821 5819 5817 5816 5814 5813 5811 5809 5807 5805 5803 5802 5800 5799
5822 5821 5821 5821 5821 5821 5822 5822 5822 5822 5823 5823 5823 5824 5824 5823 5824 5824 5824 5824 5823 5823 5822 5821 5820 5818 5817 5815 5814 5812 5810 5808 5806 5804 5802 5800 5798 5796 5794 5792 5789 5787 5786
5818 5818 5818 5819 5819 5818 5818 5818 5818 5818 5818 5818 5818 5818 5818 5818 5818 5818 5817 5817 5816 5815 5814 5813 5811 5810 5808 5806 5805 5803 5800 5798 5796 5793 5791 5789 5786 5784 5781 5779 5776 5774 5771
5815 5815 5815 5815 5815 5815 5814 5814 5814 5813 5812 5812 5812 5812 5812 5812 5811 5811 5810 5810 5808 5807 5806 5804 5803 5801 5799 5797 5795 5793 5790 5787 5784 5782 5779 5776 5773 5770 5767 5764 5761 5759 5756
5811 5810 5810 5810 5810 5810 5810 5809 5808 5808 5807 5807 5806 5806 5805 5805 5805 5804 5803 5802 5801 5799 5797 5796 5794 5792 5789 5787 5784 5781 5778 5775 5772 5769 5765 5762 5758 5755 5751 5748 5745 5741 5738
5805 5805 5804 5804 5804 5804 5804 5804 5803 5803 5802 5801 5800 5799 5799 5798 5797 5796 5795 5794 5792 5790 5788 5786 5784 5782 5779 5776 5772 5769 5765 5762 5758 5755 5751 5746 5742 5738 5734 5730 5726 5723 5719
5800 5800 5799 5799 5799 5798 5798 5798 5797 5797 5796 5794 5793 5792 5791 5790 5789 5788 5787 5785 5783 5781 5779 5776 5773 5770 5767 5764 5760 5756 5752 5748 5743 5739 5734 5730 5725 5720 5716 5711 5706 5702 5698
5793 5794 5793 5793 5793 5792 5792 5792 5791 5790 5788 5787 5786 5785 5784 5782 5781 5779 5778 5776 5773 5771 5768 5764 5761 5758 5754 5750 5746 5741 5736 5731 5726 5721 5716 5711 5706 5701 5696 5691 5686 5682 5677
5786 5787 5787 5787 5786 5786 5785 5785 5784 5783 5781 5779 5778 5777 5776 5774 5772 5770 5768 5765 5762 5759 5756 5752 5748 5744 5739 5735 5730 5725 5720 5714 5708 5703 5697 5692 5686 5681 5676 5671 5667 5662 5658
5779 5780 5780 5780 5779 5779 5778 5777 5776 5775 5774 5772 5770 5769 5767 5765 5763 5760 5757 5754 5750 5747 5742 5738 5733 5728 5723 5719 5713 5708 5702 5696 5690 5684 5678 5673 5667 5661 5656 5651 5647 5642 5638
5772 5772 5773 5773 5772 5771 5771 5770 5768 5767 5766 5764 5762 5760 5757 5755 5752 5749 5746 5742 5738 5734 5729 5724 5719 5713 5708 5703 5697 5691 5685 5679 5673 5667 5661 5655 5650 5644 5639 5634 5629 5625 5621
5765 5765 5765 5765 5765 5764 5763 5762 5760 5759 5757 5755 5752 5750 5748 5745 5741 5738 5734 5730 5725 5720 5715 5710 5705 5699 5693 5687 5681 5675 5669 5663 5657 5651 5645 5640 5634 5628 5623 5618 5614 5609 5605
5758 5758 5758 5757 5757 5756 5755 5754 5752 5750 5748 5745 5743 5740 5737 5733 5730 5726 5722 5717 5712 5707 5702 5696 5690 5684 5678 5672 5666 5660 5654 5648 5642 5636 5630 5625 5619 5614 5609 5605 5600 5596 5592
5751 5751 5751 5750 5749 5748 5747 5745 5743 5741 5739 5736 5733 5730 5726 5723 5718 5714 5709 5704 5699 5694 5688 5683 5677 5671 5665 5659 5653 5646 5640 5634 5628 5622 5617 5612 5606 5602 5597 5593 5588 5584 5580
5744 5744 5744 5743 5742 5741 5739 5737 5735 5732 5729 5726 5723 5719 5715 5711 5707 5702 5697 5692 5686 5681 5675 5669 5663 5657 5651 5645 5639 5633 5627 5622 5616 5610 5605 5600 5595 5590 5586 5582 5578 5574 5570
5738 5737 5736 5735 5734 5733 5731 5728 5726 5723 5720 5716 5713 5708 5704 5699 5694 5689 5684 5679 5673 5668 5662 5657 5651 5645 5639 5633 5627 5621 5616 5610 5605 5599 5594 5589 5585 5580 5576 5572 5568 5564 5561
5732 5730 5729 5728 5726 5724 5722 5719 5716 5713 5710 5706 5701 5697 5692 5687 5682 5677 5672 5667 5661 5656 5651 5645 5640 5634 5628 5623 5617 5611 5605 5600 5595 5590 5585 5580 5575 5571 5567 5564 5560 5556 5553
5725 5724 5722 5720 5718 5715 5713 5709 5706 5702 5699 5694 5690 5686 5681 5676 5671 5666 5661 5655 5650 5645 5640 5635 5630 5624 5618 5613 5607 5602 5596 5591 5586 5581 5576 5572 5567 5563 5559 5556 5552 5549 5546
5718 5717 5714 5712 5709 5706 5703 5699 5695 5692 5688 5684 5679 5675 5670 5665 5660 5655 5651 5646 5641 5636 5631 5626 5620 5615 5610 5604 5598 5593 5588 5583 5578 5573 5568 5564 5560 5556 5552 5549 5546 5542 5540
5711 5709 5706 5703 5700 5696 5693 5690 5686 5682 5678 5674 5670 5665 5661 5656 5651 5647 5642 5638 5633 5628 5623 5617 5612 5607 5601 5596 5591 5585 5580 5575 5570 5565 5561 5557 5553 5549 5545 5542 5539 5536 5533
5703 5701 5698 5694 5691 5688 5684 5680 5677 5673 5669 5665 5661 5656 5652 5648 5643 5639 5635 5630 5625 5620 5615 5610 5605 5599 5594 5589 5584 5578 5573 5568 5563 5558 5554 5550 5546 5542 5539 5536 5533 5530 5527